TimeEST,TemperatureF,Dew PointF,Humidity,Sea Level PressureIn,VisibilityMPH,Wind Direction,Wind SpeedMPH,Gust SpeedMPH,PrecipitationIn,Events,Conditions,WindDirDegrees,DateUTC
12:15 AM,44.6,42.8,93,30.05,4.0,SSW,3.5,-,N/A,,Mostly Cloudy,210,2012-12-09 05:15:00
12:35 AM,44.6,44.6,100,30.04,2.5,Calm,Calm,-,N/A,,Overcast,0,2012-12-09 05:35:00
12:55 AM,44.6,44.6,100,30.04,4.0,Calm,Calm,-,N/A,,Mostly Cloudy,0,2012-12-09 05:55:00
1:15 AM,44.6,42.8,93,30.04,1.0,Calm,Calm,-,N/A,,Overcast,0,2012-12-09 06:15:00
1:35 AM,44.6,42.8,93,30.04,0.8,Calm,Calm,-,N/A,,Overcast,0,2012-12-09 06:35:00
1:55 AM,44.6,42.8,93,30.05,2.5,Calm,Calm,-,N/A,,Overcast,0,2012-12-09 06:55:00
2:15 AM,42.8,42.8,100,30.04,0.8,ENE,3.5,-,N/A,,Overcast,70,2012-12-09 07:15:00
2:35 AM,44.6,42.8,93,30.05,2.0,Calm,Calm,-,N/A,,Overcast,0,2012-12-09 07:35:00
2:55 AM,44.6,42.8,93,30.05,1.0,Calm,Calm,-,N/A,,Overcast,0,2012-12-09 07:55:00
3:15 AM,44.6,42.8,93,30.05,1.5,Calm,Calm,-,N/A,,Overcast,0,2012-12-09 08:15:00
3:35 AM,42.8,42.8,100,30.05,1.5,Calm,Calm,-,N/A,,Overcast,0,2012-12-09 08:35:00
3:55 AM,44.6,42.8,93,30.05,0.5,North,3.5,-,N/A,Rain,Rain,0,2012-12-09 08:55:00
4:15 AM,44.6,42.8,93,30.06,0.8,NNE,3.5,-,N/A,Rain,Light Rain,30,2012-12-09 09:15:00
4:35 AM,44.6,42.8,93,30.06,0.8,Calm,Calm,-,N/A,,Overcast,0,2012-12-09 09:35:00
4:55 AM,44.6,42.8,93,30.05,2.0,Calm,Calm,-,N/A,,Overcast,0,2012-12-09 09:55:00
5:15 AM,44.6,42.8,93,30.05,2.0,Calm,Calm,-,N/A,,Overcast,0,2012-12-09 10:15:00
5:35 AM,44.6,42.8,93,30.06,0.5,Calm,Calm,-,N/A,Fog,Fog,0,2012-12-09 10:35:00
5:55 AM,44.6,44.6,100,30.07,3.0,Calm,Calm,-,0.02,Rain,Heavy Rain,0,2012-12-09 10:55:00
6:15 AM,44.6,42.8,93,30.07,1.2,Calm,Calm,-,0.02,Rain,Light Rain,0,2012-12-09 11:15:00
6:55 AM,44.6,42.8,93,30.09,1.5,Calm,Calm,-,0.03,Rain,Light Rain,0,2012-12-09 11:55:00
7:15 AM,44.6,42.8,93,30.10,2.0,Calm,Calm,-,N/A,,Light Drizzle,0,2012-12-09 12:15:00
7:35 AM,44.6,42.8,93,30.10,2.0,Calm,Calm,-,N/A,Rain,Light Rain,0,2012-12-09 12:35:00
7:55 AM,44.6,42.8,93,30.10,0.8,Calm,Calm,-,N/A,,Overcast,0,2012-12-09 12:55:00
8:15 AM,44.6,42.8,93,30.11,0.8,Calm,Calm,-,N/A,,Overcast,0,2012-12-09 13:15:00
8:35 AM,44.6,44.6,100,30.11,2.5,Calm,Calm,-,N/A,,Overcast,0,2012-12-09 13:35:00
8:55 AM,46.4,44.6,93,30.11,1.2,Calm,Calm,-,N/A,,Overcast,0,2012-12-09 13:55:00
9:15 AM,46.4,44.6,93,30.10,2.5,Calm,Calm,-,N/A,,Overcast,0,2012-12-09 14:15:00
9:35 AM,48.2,46.4,93,30.11,7.0,Calm,Calm,-,N/A,,Scattered Clouds,0,2012-12-09 14:35:00
9:55 AM,50.0,46.4,87,30.10,10.0,Calm,Calm,-,N/A,,Scattered Clouds,0,2012-12-09 14:55:00
10:15 AM,50.0,48.2,94,30.11,10.0,Calm,Calm,-,N/A,,Mostly Cloudy,0,2012-12-09 15:15:00
10:35 AM,50.0,48.2,94,30.10,10.0,Calm,Calm,-,N/A,,Overcast,0,2012-12-09 15:35:00
10:55 AM,51.8,48.2,88,30.10,10.0,Calm,Calm,-,N/A,,Overcast,0,2012-12-09 15:55:00
11:15 AM,53.6,50.0,88,30.09,10.0,Calm,Calm,-,N/A,,Mostly Cloudy,0,2012-12-09 16:15:00
11:35 AM,53.6,48.2,82,30.07,10.0,Calm,Calm,-,N/A,,Mostly Cloudy,0,2012-12-09 16:35:00
11:55 AM,51.8,48.2,88,30.06,10.0,NNE,3.5,-,N/A,,Mostly Cloudy,30,2012-12-09 16:55:00
12:15 PM,51.8,48.2,88,30.05,10.0,Calm,Calm,-,N/A,,Mostly Cloudy,0,2012-12-09 17:15:00
12:35 PM,53.6,50.0,88,30.05,10.0,North,3.5,-,N/A,,Mostly Cloudy,10,2012-12-09 17:35:00
12:55 PM,53.6,50.0,88,30.04,10.0,NNE,3.5,-,N/A,,Mostly Cloudy,20,2012-12-09 17:55:00
1:15 PM,53.6,50.0,88,30.03,10.0,Calm,Calm,-,N/A,,Overcast,0,2012-12-09 18:15:00
1:35 PM,55.4,50.0,82,30.02,10.0,NNE,4.6,-,N/A,,Scattered Clouds,20,2012-12-09 18:35:00
1:55 PM,55.4,50.0,82,30.01,10.0,North,5.8,-,N/A,,Scattered Clouds,10,2012-12-09 18:55:00
2:15 PM,53.6,50.0,88,30.00,10.0,NNE,4.6,-,N/A,,Mostly Cloudy,20,2012-12-09 19:15:00
2:35 PM,53.6,50.0,88,30.00,10.0,NNE,6.9,-,N/A,,Overcast,20,2012-12-09 19:35:00
2:55 PM,53.6,50.0,88,30.00,10.0,NNE,4.6,-,N/A,,Overcast,20,2012-12-09 19:55:00
3:35 PM,57.2,44.6,63,30.00,10.0,SSE,8.1,-,N/A,,Scattered Clouds,160,2012-12-09 20:35:00
3:55 PM,55.4,44.6,67,30.00,10.0,South,5.8,-,N/A,,Scattered Clouds,170,2012-12-09 20:55:00
4:15 PM,55.4,44.6,67,30.00,10.0,SSE,5.8,-,N/A,,Mostly Cloudy,150,2012-12-09 21:15:00
4:35 PM,55.4,44.6,67,29.99,10.0,SSE,4.6,-,N/A,,Mostly Cloudy,160,2012-12-09 21:35:00
4:55 PM,53.6,44.6,72,29.99,10.0,SSE,4.6,-,N/A,,Scattered Clouds,150,2012-12-09 21:55:00
5:15 PM,53.6,44.6,72,29.99,10.0,SE,4.6,-,N/A,,Scattered Clouds,140,2012-12-09 22:15:00
5:35 PM,53.6,44.6,72,29.99,10.0,SSE,3.5,-,N/A,,Scattered Clouds,150,2012-12-09 22:35:00
5:55 PM,53.6,44.6,72,30.00,10.0,SSE,3.5,-,N/A,,Mostly Cloudy,160,2012-12-09 22:55:00
6:15 PM,53.6,44.6,72,29.99,10.0,South,4.6,-,N/A,,Mostly Cloudy,190,2012-12-09 23:15:00
6:35 PM,53.6,44.6,72,30.00,10.0,SSW,5.8,-,N/A,Rain,Light Rain,210,2012-12-09 23:35:00
6:55 PM,51.8,46.4,82,30.02,10.0,West,3.5,-,0.01,Rain,Light Rain,280,2012-12-09 23:55:00
7:15 PM,51.8,46.4,82,30.02,7.0,Calm,Calm,-,0.02,Rain,Light Rain,0,2012-12-10 00:15:00
7:35 PM,50.0,46.4,87,30.02,5.0,Calm,Calm,-,0.03,,Drizzle,0,2012-12-10 00:35:00
7:55 PM,50.0,46.4,87,30.00,4.0,ESE,4.6,-,0.03,,Light Drizzle,110,2012-12-10 00:55:00
8:15 PM,50.0,48.2,94,30.00,7.0,Calm,Calm,-,N/A,,Overcast,0,2012-12-10 01:15:00
8:35 PM,50.0,46.4,87,29.99,10.0,Calm,Calm,-,N/A,,Overcast,0,2012-12-10 01:35:00
8:55 PM,50.0,46.4,87,29.98,3.0,Calm,Calm,-,0.01,,Overcast,0,2012-12-10 01:55:00
9:15 PM,50.0,46.4,87,29.98,4.0,Calm,Calm,-,N/A,,Overcast,0,2012-12-10 02:15:00
9:35 PM,50.0,46.4,87,29.97,5.0,NNE,3.5,-,N/A,,Overcast,20,2012-12-10 02:35:00
9:55 PM,48.2,46.4,93,29.96,2.5,Calm,Calm,-,N/A,,Scattered Clouds,0,2012-12-10 02:55:00
10:15 PM,46.4,44.6,93,29.96,0.2,Calm,Calm,-,N/A,Fog,Fog,0,2012-12-10 03:15:00
10:35 PM,46.4,44.6,93,29.95,0.2,Calm,Calm,-,N/A,Fog,Fog,0,2012-12-10 03:35:00
10:55 PM,46.4,44.6,93,29.95,0.2,North,3.5,-,N/A,Fog,Fog,0,2012-12-10 03:55:00
11:15 PM,44.6,42.8,93,29.94,0.2,Calm,Calm,-,N/A,Fog,Fog,0,2012-12-10 04:15:00
11:35 PM,44.6,42.8,93,29.93,0.2,Calm,Calm,-,N/A,Fog,Fog,0,2012-12-10 04:35:00
11:55 PM,42.8,42.8,100,29.93,0.2,Calm,Calm,-,N/A,Fog,Fog,0,2012-12-10 04:55:00